SB KEPS @ AMSAT $ORB11279.O Orbital Elements 11279.OSCAR
HR AMSAT ORBITAL ELEMENTS FOR OSCAR SATELLITES FROM WA5QGD FORT WORTH,TX October 6, 2011 Send Subscribe/unsubscribe to KEPS at http://www.amsat.org/mailman/listinfo/keps BID: ORB11279.O TO ALL RADIO AMATEURS BT
Satellite: AO-07 Catalog number: 07530 Epoch time: 11278.52775358 Element set: 0199 Inclination: 101.3966 deg RA of node: 280.7286 deg Eccentricity: 0.0012110 Arg of perigee: 062.7431 deg Mean anomaly: 297.4872 deg Mean motion: 12.53584452 rev/day Decay rate: -2.7e-07 rev/day^2 Epoch rev: 68801 Checksum: 311
Satellite: FO-29 Catalog number: 24278 Epoch time: 11278.90798306 Element set: 0677 Inclination: 098.5645 deg RA of node: 048.1996 deg Eccentricity: 0.0350584 Arg of perigee: 330.5185 deg Mean anomaly: 027.6577 deg Mean motion: 13.52965344 rev/day Decay rate: 6.8e-07 rev/day^2 Epoch rev: 74743 Checksum: 365
Satellite: SO-33 Catalog number: 25509 Epoch time: 11278.58772917 Element set: 70 Inclination: 031.4323 deg RA of node: 339.8704 deg Eccentricity: 0.0353650 Arg of perigee: 127.2008 deg Mean anomaly: 236.1440 deg Mean motion: 14.28454706 rev/day Decay rate: 3.03e-06 rev/day^2 Epoch rev: 67607 Checksum: 294
Satellite: RS-22 Catalog number: 27939 Epoch time: 11279.72557411 Element set: 693 Inclination: 097.8328 deg RA of node: 128.3224 deg Eccentricity: 0.0013530 Arg of perigee: 357.2418 deg Mean anomaly: 002.8715 deg Mean motion: 14.63669746 rev/day Decay rate: 7.02e-06 rev/day^2 Epoch rev: 42865 Checksum: 324
Satellite: VO-52 Catalog number: 28650 Epoch time: 11279.75883511 Element set: 917 Inclination: 097.6320 deg RA of node: 317.8376 deg Eccentricity: 0.0027222 Arg of perigee: 153.6973 deg Mean anomaly: 206.5623 deg Mean motion: 14.82232914 rev/day Decay rate: 1.641e-05 rev/day^2 Epoch rev: 34727 Checksum: 318
Satellite: SO-67 Catalog number: 35870 Epoch time: 11279.80028191 Element set: 287 Inclination: 097.2695 deg RA of node: 319.3934 deg Eccentricity: 0.0002766 Arg of perigee: 029.7033 deg Mean anomaly: 082.5310 deg Mean motion: 15.21291273 rev/day Decay rate: 4.448e-05 rev/day^2 Epoch rev: 11390 Checksum: 312
Satellite: HO-68 Catalog number: 36122 Epoch time: 11279.66614101 Element set: 806 Inclination: 100.4028 deg RA of node: 338.7274 deg Eccentricity: 0.0007399 Arg of perigee: 332.7934 deg Mean anomaly: 027.2797 deg Mean motion: 13.16288656 rev/day Decay rate: -4.4e-07 rev/day^2 Epoch rev: 8690 Checksum: 318
/EX SB KEPS @ AMSAT $ORB11279.D Orbital Elements 11279.MICROS
HR AMSAT ORBITAL ELEMENTS FOR THE MICROSATS FROM WA5QGD FORT WORTH,TX October 6, 2011 Send Subscribe/unsubscribe to KEPS at http://www.amsat.org/mailman/listinfo/keps BID: ORB11279.D TO ALL RADIO AMATEURS BT
Satellite: UO-11 Catalog number: 14781 Epoch time: 11279.89491184 Element set: 672 Inclination: 097.9916 deg RA of node: 336.1776 deg Eccentricity: 0.0009685 Arg of perigee: 132.0404 deg Mean anomaly: 228.1626 deg Mean motion: 14.80064686 rev/day Decay rate: 6.58e-06 rev/day^2 Epoch rev: 48231 Checksum: 335
Satellite: AO-16 Catalog number: 20439 Epoch time: 11279.89320219 Element set: 297 Inclination: 098.3956 deg RA of node: 225.8394 deg Eccentricity: 0.0010662 Arg of perigee: 187.8889 deg Mean anomaly: 172.2126 deg Mean motion: 14.31947891 rev/day Decay rate: 1.62e-06 rev/day^2 Epoch rev: 13360 Checksum: 334
Satellite: LO-19 Catalog number: 20442 Epoch time: 11279.88537943 Element set: 215 Inclination: 098.3604 deg RA of node: 229.7602 deg Eccentricity: 0.0011794 Arg of perigee: 180.9550 deg Mean anomaly: 179.1608 deg Mean motion: 14.32172080 rev/day Decay rate: 2.97e-06 rev/day^2 Epoch rev: 13378 Checksum: 315
Satellite: AO-27 Catalog number: 22825 Epoch time: 11278.89261896 Element set: 0941 Inclination: 098.5431 deg RA of node: 221.1136 deg Eccentricity: 0.0007840 Arg of perigee: 314.9649 deg Mean anomaly: 045.0895 deg Mean motion: 14.29370537 rev/day Decay rate: 1.82e-06 rev/day^2 Epoch rev: 94000 Checksum: 317
Satellite: IO-26 Catalog number: 22826 Epoch time: 11279.85152701 Element set: 676 Inclination: 098.5361 deg RA of node: 222.4943 deg Eccentricity: 0.0008373 Arg of perigee: 306.5710 deg Mean anomaly: 053.4699 deg Mean motion: 14.29635607 rev/day Decay rate: 1.68e-06 rev/day^2 Epoch rev: 94026 Checksum: 322
Satellite: GO-32 Catalog number: 25397 Epoch time: 11279.76512285 Element set: 597 Inclination: 098.3371 deg RA of node: 266.4158 deg Eccentricity: 0.0000977 Arg of perigee: 359.4179 deg Mean anomaly: 000.7000 deg Mean motion: 14.23223276 rev/day Decay rate: 1.50e-06 rev/day^2 Epoch rev: 68783 Checksum: 319
Satellite: NO-44 Catalog number: 26931 Epoch time: 11279.48246345 Element set: 866 Inclination: 067.0518 deg RA of node: 056.7429 deg Eccentricity: 0.0004890 Arg of perigee: 259.2213 deg Mean anomaly: 100.8325 deg Mean motion: 14.29687298 rev/day Decay rate: 2.7e-07 rev/day^2 Epoch rev: 52283 Checksum: 325
Satellite: SO-50 Catalog number: 27607 Epoch time: 11279.70391495 Element set: 583 Inclination: 064.5598 deg RA of node: 348.7774 deg Eccentricity: 0.0081098 Arg of perigee: 297.8535 deg Mean anomaly: 061.4364 deg Mean motion: 14.71850911 rev/day Decay rate: 7.38e-06 rev/day^2 Epoch rev: 47250 Checksum: 350
Satellite: CO-55 Catalog number: 27844 Epoch time: 11278.52650952 Element set: 0215 Inclination: 098.7075 deg RA of node: 285.6354 deg Eccentricity: 0.0008920 Arg of perigee: 240.8030 deg Mean anomaly: 119.2252 deg Mean motion: 14.20855219 rev/day Decay rate: 2.46e-06 rev/day^2 Epoch rev: 42858 Checksum: 309
Satellite: CO-57 Catalog number: 27848 Epoch time: 11278.55763481 Element set: 0162 Inclination: 098.7139 deg RA of node: 284.8935 deg Eccentricity: 0.0008955 Arg of perigee: 244.8250 deg Mean anomaly: 115.1999 deg Mean motion: 14.20629404 rev/day Decay rate: 2.06e-06 rev/day^2 Epoch rev: 42853 Checksum: 343
Satellite: AO-51 Catalog number: 28375 Epoch time: 11278.94969477 Element set: 0090 Inclination: 098.1114 deg RA of node: 251.6489 deg Eccentricity: 0.0084742 Arg of perigee: 093.8962 deg Mean anomaly: 267.1944 deg Mean motion: 14.40788986 rev/day Decay rate: 1.84e-06 rev/day^2 Epoch rev: 38201 Checksum: 360
Satellite: CP3 Catalog number: 31129 Epoch time: 11278.71127944 Element set: 0987 Inclination: 097.8936 deg RA of node: 296.5182 deg Eccentricity: 0.0101478 Arg of perigee: 196.7032 deg Mean anomaly: 163.0756 deg Mean motion: 14.52589766 rev/day Decay rate: 5.83e-06 rev/day^2 Epoch rev: 23688 Checksum: 354
Satellite: CO-65 Catalog number: 32785 Epoch time: 11278.19362544 Element set: 0117 Inclination: 097.8370 deg RA of node: 339.9193 deg Eccentricity: 0.0014895 Arg of perigee: 173.7437 deg Mean anomaly: 186.4021 deg Mean motion: 14.82174730 rev/day Decay rate: 1.198e-05 rev/day^2 Epoch rev: 18583 Checksum: 340
Satellite: PRISM Catalog number: 33493 Epoch time: 11279.77755406 Element set: 27 Inclination: 098.1396 deg RA of node: 050.1291 deg Eccentricity: 0.0020495 Arg of perigee: 042.7209 deg Mean anomaly: 317.5606 deg Mean motion: 14.82069858 rev/day Decay rate: 3.170e-05 rev/day^2 Epoch rev: 14604 Checksum: 303
Satellite: SOHLA-1 Catalog number: 33496 Epoch time: 11278.95985876 Element set: 0556 Inclination: 098.0892 deg RA of node: 027.7232 deg Eccentricity: 0.0007264 Arg of perigee: 125.3398 deg Mean anomaly: 234.8489 deg Mean motion: 14.69681158 rev/day Decay rate: 5.81e-06 rev/day^2 Epoch rev: 14475 Checksum: 359
Satellite: TISAT-1 Catalog number: 36799 Epoch time: 11279.84367949 Element set: 299 Inclination: 098.0911 deg RA of node: 349.1497 deg Eccentricity: 0.0013931 Arg of perigee: 276.5147 deg Mean anomaly: 083.4477 deg Mean motion: 14.80799805 rev/day Decay rate: 1.917e-05 rev/day^2 Epoch rev: 6683 Checksum: 373
Satellite: STUDSAT Catalog number: 36801 Epoch time: 11278.82195060 Element set: 0284 Inclination: 098.0954 deg RA of node: 348.0705 deg Eccentricity: 0.0012589 Arg of perigee: 269.3663 deg Mean anomaly: 090.6106 deg Mean motion: 14.81229467 rev/day Decay rate: 5.083e-05 rev/day^2 Epoch rev: 06667 Checksum: 319
Satellite: OOREOS Catalog number: 37224 Epoch time: 11153.29456974 Element set: 0179 Inclination: 071.9726 deg RA of node: 071.8135 deg Eccentricity: 0.0020315 Arg of perigee: 307.7637 deg Mean anomaly: 052.1684 deg Mean motion: 14.77036357 rev/day Decay rate: 4.92e-06 rev/day^2 Epoch rev: 02867 Checksum: 309
Satellite: FO-69 Catalog number: 37227 Epoch time: 11278.00905673 Element set: 0152 Inclination: 071.9695 deg RA of node: 157.1036 deg Eccentricity: 0.0015389 Arg of perigee: 077.7487 deg Mean anomaly: 282.5384 deg Mean motion: 14.76673552 rev/day Decay rate: 5.69e-06 rev/day^2 Epoch rev: 02553 Checksum: 342
Satellite: NANOSALD Catalog number: 37361 Epoch time: 11242.25215765 Element set: 0351 Inclination: 071.9735 deg RA of node: 221.4469 deg Eccentricity: 0.0025730 Arg of perigee: 245.3422 deg Mean anomaly: 114.7284 deg Mean motion: 15.22200108 rev/day Decay rate: 1.80112e-03 rev/day^2 Epoch rev: 03331 Checksum: 248
Satellite: FO-70 Catalog number: 37380 Epoch time: 11278.04019690 Element set: 0288 Inclination: 071.9728 deg RA of node: 157.2762 deg Eccentricity: 0.0015951 Arg of perigee: 073.5757 deg Mean anomaly: 286.7149 deg Mean motion: 14.76437049 rev/day Decay rate: 5.44e-06 rev/day^2 Epoch rev: 04707 Checksum: 336
/EX SB KEPS @ AMSAT $ORB11279.W Orbital Elements 11279.WEATHER
HR AMSAT ORBITAL ELEMENTS FOR WEATHER SATELLITES FROM WA5QGD FORT WORTH,TX October 6, 2011 Send Subscribe/unsubscribe to KEPS at http://www.amsat.org/mailman/listinfo/keps BID: ORB11279.W TO ALL RADIO AMATEURS BT
Satellite: NOAA-10 Catalog number: 16969 Epoch time: 11278.95798505 Element set: 0660 Inclination: 098.6107 deg RA of node: 307.1960 deg Eccentricity: 0.0011408 Arg of perigee: 262.8194 deg Mean anomaly: 097.1675 deg Mean motion: 14.27482290 rev/day Decay rate: 1.18e-06 rev/day^2 Epoch rev: 30345 Checksum: 323
